Time,TemperatureF,DewpointF,PressureIn,WindDirection,WindDirectionDegrees,WindSpeedMPH,WindSpeedGustMPH,Humidity,HourlyPrecipIn,Conditions,Clouds,dailyrainin,SoftwareType,DateUTC
2013-01-03 00:00:00,30.3,26.9,30.24,NNW,329,0.0,6.0,87,0.00,,,0.00,VWS V14.00,2013-01-03 06:00:00,
2013-01-03 00:02:00,30.4,27.0,30.24,NNW,329,0.0,4.0,87,0.00,,,0.00,VWS V14.00,2013-01-03 06:02:00,
2013-01-03 00:07:00,30.3,26.9,30.24,NNW,329,2.0,6.0,87,0.00,,,0.00,VWS V14.00,2013-01-03 06:07:00,
2013-01-03 00:12:00,30.4,27.0,30.24,NNW,329,0.0,6.0,87,0.00,,,0.00,VWS V14.00,2013-01-03 06:12:00,
2013-01-03 00:18:00,30.4,27.0,30.24,NNW,329,1.0,6.0,87,0.00,,,0.00,VWS V14.00,2013-01-03 06:18:00,
2013-01-03 00:23:00,30.4,27.0,30.24,NNW,329,0.0,6.0,87,0.00,,,0.00,VWS V14.00,2013-01-03 06:23:00,
2013-01-03 00:28:00,30.4,27.0,30.23,NNW,329,6.0,9.0,87,0.00,,,0.00,VWS V14.00,2013-01-03 06:28:00,
2013-01-03 00:30:00,30.4,27.0,30.24,NNW,329,5.0,9.0,87,0.00,,,0.00,VWS V14.00,2013-01-03 06:30:00,
2013-01-03 00:33:00,30.3,26.9,30.24,NNW,329,0.0,5.0,87,0.00,,,0.00,VWS V14.00,2013-01-03 06:33:00,
2013-01-03 00:38:00,30.3,26.9,30.23,NNW,329,2.0,7.0,87,0.00,,,0.00,VWS V14.00,2013-01-03 06:38:00,
2013-01-03 00:43:00,30.4,27.0,30.23,NNW,329,0.0,7.0,87,0.00,,,0.00,VWS V14.00,2013-01-03 06:43:00,
2013-01-03 00:48:00,30.4,27.0,30.23,NNW,329,0.0,7.0,87,0.00,,,0.00,VWS V14.00,2013-01-03 06:48:00,
2013-01-03 00:53:00,30.4,27.0,30.23,NNW,329,2.0,7.0,87,0.00,,,0.00,VWS V14.00,2013-01-03 06:53:00,
2013-01-03 00:58:00,30.4,27.0,30.23,NNW,329,6.0,8.0,87,0.00,,,0.00,VWS V14.00,2013-01-03 06:58:00,
2013-01-03 01:00:00,30.4,27.0,30.23,NNW,329,0.0,8.0,87,0.00,,,0.00,VWS V14.00,2013-01-03 07:00:00,
2013-01-03 01:03:00,30.4,27.0,30.23,NNW,329,6.0,9.0,87,0.00,,,0.00,VWS V14.00,2013-01-03 07:03:00,
2013-01-03 01:08:00,30.5,27.1,30.24,NNW,329,4.0,9.0,87,0.00,,,0.00,VWS V14.00,2013-01-03 07:08:00,
2013-01-03 01:13:00,30.5,27.1,30.24,NNW,329,2.0,9.0,87,0.00,,,0.00,VWS V14.00,2013-01-03 07:13:00,
2013-01-03 01:18:00,30.5,27.1,30.24,NNW,329,4.0,9.0,87,0.00,,,0.00,VWS V14.00,2013-01-03 07:18:00,
2013-01-03 01:23:00,30.6,27.2,30.24,NNW,329,0.0,9.0,87,0.00,,,0.00,VWS V14.00,2013-01-03 07:23:00,
2013-01-03 01:28:00,30.5,27.1,30.24,NNW,329,4.0,9.0,87,0.00,,,0.00,VWS V14.00,2013-01-03 07:28:00,
2013-01-03 01:30:00,30.5,27.1,30.24,NNW,329,5.0,9.0,87,0.00,,,0.00,VWS V14.00,2013-01-03 07:30:00,
2013-01-03 01:33:00,30.6,27.2,30.24,NNW,330,2.0,9.0,87,0.00,,,0.00,VWS V14.00,2013-01-03 07:33:00,
2013-01-03 01:38:00,30.5,27.1,30.24,NNW,331,0.0,9.0,87,0.00,,,0.00,VWS V14.00,2013-01-03 07:38:00,
2013-01-03 01:43:00,30.5,27.1,30.24,NNW,331,2.0,9.0,87,0.00,,,0.00,VWS V14.00,2013-01-03 07:43:00,
2013-01-03 01:48:00,30.5,27.1,30.24,NNW,331,7.0,9.0,87,0.00,,,0.00,VWS V14.00,2013-01-03 07:48:00,
2013-01-03 01:53:00,30.5,27.1,30.24,NNW,332,4.0,9.0,87,0.00,,,0.00,VWS V14.00,2013-01-03 07:53:00,
2013-01-03 01:58:00,30.5,27.1,30.24,NNW,332,2.0,9.0,87,0.00,,,0.00,VWS V14.00,2013-01-03 07:58:00,
2013-01-03 02:00:00,30.5,27.1,30.24,NNW,332,2.0,9.0,87,0.00,,,0.00,VWS V14.00,2013-01-03 08:00:00,
2013-01-03 02:03:00,30.5,27.1,30.24,NNW,332,5.0,8.0,87,0.00,,,0.00,VWS V14.00,2013-01-03 08:03:00,
2013-01-03 02:08:00,30.5,27.1,30.24,NNW,333,2.0,8.0,87,0.00,,,0.00,VWS V14.00,2013-01-03 08:08:00,
2013-01-03 02:13:00,30.5,27.1,30.24,NNW,341,8.0,12.0,87,0.00,,,0.00,VWS V14.00,2013-01-03 08:13:00,
2013-01-03 02:19:00,30.5,27.1,30.25,NNW,341,2.0,12.0,87,0.00,,,0.00,VWS V14.00,2013-01-03 08:19:00,
2013-01-03 02:24:00,30.6,27.2,30.25,NNW,340,5.0,12.0,87,0.00,,,0.00,VWS V14.00,2013-01-03 08:24:00,
2013-01-03 02:29:00,30.6,27.2,30.25,NNW,341,4.0,10.0,87,0.00,,,0.00,VWS V14.00,2013-01-03 08:29:00,
2013-01-03 02:30:00,30.6,27.2,30.25,NNW,341,10.0,12.0,87,0.00,,,0.00,VWS V14.00,2013-01-03 08:30:00,
2013-01-03 02:34:00,30.6,27.2,30.25,NNW,342,4.0,10.0,87,0.00,,,0.00,VWS V14.00,2013-01-03 08:34:00,
2013-01-03 02:39:00,30.6,27.2,30.25,NNW,342,8.0,11.0,87,0.00,,,0.00,VWS V14.00,2013-01-03 08:39:00,
2013-01-03 02:44:00,30.7,27.3,30.26,NNW,340,6.0,13.0,87,0.00,,,0.00,VWS V14.00,2013-01-03 08:44:00,
2013-01-03 02:49:00,30.7,27.3,30.26,NNW,341,6.0,13.0,87,0.00,,,0.00,VWS V14.00,2013-01-03 08:49:00,
2013-01-03 02:54:00,30.7,27.0,30.26,North,350,11.0,13.0,86,0.00,,,0.00,VWS V14.00,2013-01-03 08:54:00,
2013-01-03 02:59:00,30.7,27.0,30.27,North,360,4.0,5.0,86,0.00,,,0.00,VWS V14.00,2013-01-03 08:59:00,
2013-01-03 03:00:00,30.7,27.0,30.27,North,350,4.0,13.0,86,0.00,,,0.00,VWS V14.00,2013-01-03 09:00:00,
2013-01-03 03:04:00,30.7,27.0,30.27,North,355,7.0,8.0,86,0.00,,,0.00,VWS V14.00,2013-01-03 09:04:00,
2013-01-03 03:09:00,30.7,27.0,30.27,North,355,6.0,9.0,86,0.00,,,0.00,VWS V14.00,2013-01-03 09:09:00,
2013-01-03 03:14:00,30.7,27.0,30.27,North,355,6.0,9.0,86,0.00,,,0.00,VWS V14.00,2013-01-03 09:14:00,
2013-01-03 03:19:00,30.6,26.9,30.27,North,355,5.0,12.0,86,0.00,,,0.00,VWS V14.00,2013-01-03 09:19:00,
2013-01-03 03:24:00,30.6,26.9,30.27,North,355,5.0,12.0,86,0.00,,,0.00,VWS V14.00,2013-01-03 09:24:00,
2013-01-03 03:29:00,30.6,26.9,30.27,North,355,2.0,5.0,86,0.00,,,0.00,VWS V14.00,2013-01-03 09:29:00,
2013-01-03 03:30:00,30.6,26.9,30.27,North,355,4.0,12.0,86,0.00,,,0.00,VWS V14.00,2013-01-03 09:30:00,
2013-01-03 03:34:00,30.5,26.8,30.27,North,351,7.0,10.0,86,0.00,,,0.00,VWS V14.00,2013-01-03 09:34:00,
2013-01-03 03:39:00,30.5,26.8,30.27,NNW,348,1.0,10.0,86,0.00,,,0.00,VWS V14.00,2013-01-03 09:39:00,
2013-01-03 03:44:00,30.5,26.8,30.27,NNW,348,6.0,10.0,86,0.00,,,0.00,VWS V14.00,2013-01-03 09:44:00,
2013-01-03 03:50:00,30.4,26.7,30.27,North,349,2.0,11.0,86,0.00,,,0.00,VWS V14.00,2013-01-03 09:50:00,
2013-01-03 03:55:00,30.3,26.6,30.27,North,350,6.0,11.0,86,0.00,,,0.00,VWS V14.00,2013-01-03 09:55:00,
2013-01-03 04:00:00,30.3,26.6,30.27,NNW,348,7.0,7.0,86,0.00,,,0.00,VWS V14.00,2013-01-03 10:00:00,
2013-01-03 04:05:00,30.3,26.6,30.27,NNW,347,2.0,8.0,86,0.00,,,0.00,VWS V14.00,2013-01-03 10:05:00,
2013-01-03 04:10:00,30.2,26.5,30.27,NNW,346,4.0,8.0,86,0.00,,,0.00,VWS V14.00,2013-01-03 10:10:00,
2013-01-03 04:15:00,30.2,26.5,30.27,NNW,346,6.0,8.0,86,0.00,,,0.00,VWS V14.00,2013-01-03 10:15:00,
2013-01-03 04:20:00,30.2,26.5,30.27,NNW,346,0.0,9.0,86,0.00,,,0.00,VWS V14.00,2013-01-03 10:20:00,
2013-01-03 04:25:00,30.1,26.1,30.27,NNW,344,5.0,9.0,85,0.00,,,0.00,VWS V14.00,2013-01-03 10:25:00,
2013-01-03 04:30:00,30.1,26.1,30.27,NNW,340,4.0,8.0,85,0.00,,,0.00,VWS V14.00,2013-01-03 10:30:00,
2013-01-03 04:35:00,30.0,26.0,30.27,NNW,339,6.0,10.0,85,0.00,,,0.00,VWS V14.00,2013-01-03 10:35:00,
2013-01-03 04:40:00,30.0,26.0,30.27,NNW,338,5.0,10.0,85,0.00,,,0.00,VWS V14.00,2013-01-03 10:40:00,
2013-01-03 04:45:00,30.0,26.0,30.27,NNW,348,4.0,11.0,85,0.00,,,0.00,VWS V14.00,2013-01-03 10:45:00,
2013-01-03 04:50:00,29.9,26.0,30.28,NNW,348,7.0,11.0,85,0.00,,,0.00,VWS V14.00,2013-01-03 10:50:00,
2013-01-03 04:55:00,29.9,26.0,30.28,North,349,4.0,11.0,85,0.00,,,0.00,VWS V14.00,2013-01-03 10:55:00,
2013-01-03 05:00:00,29.8,25.9,30.28,NNW,346,4.0,9.0,85,0.00,,,0.00,VWS V14.00,2013-01-03 11:00:00,
2013-01-03 05:05:00,29.8,25.6,30.28,NNW,345,6.0,10.0,84,0.00,,,0.00,VWS V14.00,2013-01-03 11:05:00,
2013-01-03 05:10:00,29.8,25.6,30.28,NNW,337,6.0,11.0,84,0.00,,,0.00,VWS V14.00,2013-01-03 11:10:00,
2013-01-03 05:15:00,29.8,25.6,30.28,NNW,341,5.0,11.0,84,0.00,,,0.00,VWS V14.00,2013-01-03 11:15:00,
2013-01-03 05:20:00,29.8,25.6,30.28,NNW,340,7.0,11.0,84,0.00,,,0.00,VWS V14.00,2013-01-03 11:20:00,
2013-01-03 05:25:00,29.8,25.6,30.29,NNW,342,5.0,11.0,84,0.00,,,0.00,VWS V14.00,2013-01-03 11:25:00,
2013-01-03 05:30:00,29.7,25.5,30.29,NNW,343,5.0,11.0,84,0.00,,,0.00,VWS V14.00,2013-01-03 11:30:00,
2013-01-03 05:31:00,29.7,25.5,30.29,NNW,348,8.0,13.0,84,0.00,,,0.00,VWS V14.00,2013-01-03 11:31:00,
2013-01-03 05:36:00,29.7,25.5,30.29,NNW,346,6.0,13.0,84,0.00,,,0.00,VWS V14.00,2013-01-03 11:36:00,
2013-01-03 05:41:00,29.7,25.5,30.29,NNW,340,6.0,13.0,84,0.00,,,0.00,VWS V14.00,2013-01-03 11:41:00,
2013-01-03 05:46:00,29.7,25.5,30.29,NNW,341,10.0,13.0,84,0.00,,,0.00,VWS V14.00,2013-01-03 11:46:00,
2013-01-03 05:51:00,29.6,25.4,30.30,NNW,339,5.0,13.0,84,0.00,,,0.00,VWS V14.00,2013-01-03 11:51:00,
2013-01-03 05:56:00,29.6,25.4,30.30,NNW,342,5.0,13.0,84,0.00,,,0.00,VWS V14.00,2013-01-03 11:56:00,
2013-01-03 06:00:00,29.6,25.4,30.30,NNW,344,7.0,13.0,84,0.00,,,0.00,VWS V14.00,2013-01-03 12:00:00,
2013-01-03 06:01:00,29.5,25.3,30.30,NNW,343,7.0,11.0,84,0.00,,,0.00,VWS V14.00,2013-01-03 12:01:00,
2013-01-03 06:06:00,29.5,25.3,30.30,NNW,340,8.0,11.0,84,0.00,,,0.00,VWS V14.00,2013-01-03 12:06:00,
2013-01-03 06:11:00,29.5,25.3,30.31,NNW,342,8.0,11.0,84,0.00,,,0.00,VWS V14.00,2013-01-03 12:11:00,
2013-01-03 06:16:00,29.4,25.2,30.31,NW,325,11.0,15.0,84,0.00,,,0.00,VWS V14.00,2013-01-03 12:16:00,
2013-01-03 06:21:00,29.4,25.2,30.31,North,355,6.0,17.0,84,0.00,,,0.00,VWS V14.00,2013-01-03 12:21:00,
2013-01-03 06:26:00,29.4,25.2,30.31,NNE,18,7.0,17.0,84,0.00,,,0.00,VWS V14.00,2013-01-03 12:26:00,
2013-01-03 06:30:00,29.3,25.1,30.31,North,5,6.0,17.0,84,0.00,,,0.00,VWS V14.00,2013-01-03 12:30:00,
2013-01-03 06:31:00,29.3,25.4,30.31,North,5,5.0,7.0,85,0.00,,,0.00,VWS V14.00,2013-01-03 12:31:00,
2013-01-03 06:36:00,29.3,25.4,30.31,North,5,6.0,10.0,85,0.00,,,0.00,VWS V14.00,2013-01-03 12:36:00,
2013-01-03 06:41:00,28.9,24.7,30.32,North,5,7.0,12.0,84,0.00,,,0.00,VWS V14.00,2013-01-03 12:41:00,
2013-01-03 06:46:00,28.5,24.3,30.33,North,360,5.0,12.0,84,0.00,,,0.00,VWS V14.00,2013-01-03 12:46:00,
2013-01-03 06:51:00,28.0,23.8,30.33,North,5,7.0,14.0,84,0.00,,,0.00,VWS V14.00,2013-01-03 12:51:00,
2013-01-03 06:56:00,27.6,23.4,30.33,NNE,13,6.0,14.0,84,0.00,,,0.00,VWS V14.00,2013-01-03 12:56:00,
2013-01-03 07:00:00,27.4,23.2,30.33,NNE,13,8.0,14.0,84,0.00,,,0.00,VWS V14.00,2013-01-03 13:00:00,
2013-01-03 07:01:00,27.2,23.0,30.33,North,360,9.0,19.0,84,0.00,,,0.00,VWS V14.00,2013-01-03 13:01:00,
2013-01-03 07:06:00,26.7,22.2,30.34,NNE,20,8.0,19.0,83,0.00,,,0.00,VWS V14.00,2013-01-03 13:06:00,
2013-01-03 07:11:00,26.3,22.1,30.34,NNE,22,8.0,19.0,84,0.00,,,0.00,VWS V14.00,2013-01-03 13:11:00,
2013-01-03 07:16:00,25.9,21.7,30.34,North,5,6.0,19.0,84,0.00,,,0.00,VWS V14.00,2013-01-03 13:16:00,
2013-01-03 07:21:00,25.6,21.5,30.34,North,355,8.0,19.0,84,0.00,,,0.00,VWS V14.00,2013-01-03 13:21:00,
2013-01-03 07:27:00,25.2,20.8,30.34,North,5,3.0,19.0,83,0.00,,,0.00,VWS V14.00,2013-01-03 13:27:00,
2013-01-03 07:30:00,25.1,20.7,30.34,North,5,8.0,19.0,83,0.00,,,0.00,VWS V14.00,2013-01-03 13:30:00,
2013-01-03 07:32:00,24.9,20.5,30.34,North,355,8.0,13.0,83,0.00,,,0.00,VWS V14.00,2013-01-03 13:32:00,
2013-01-03 07:37:00,24.6,20.2,30.34,North,355,7.0,13.0,83,0.00,,,0.00,VWS V14.00,2013-01-03 13:37:00,
2013-01-03 07:42:00,24.2,19.8,30.34,North,5,7.0,16.0,83,0.00,,,0.00,VWS V14.00,2013-01-03 13:42:00,
2013-01-03 07:47:00,23.9,19.2,30.34,North,5,8.0,16.0,82,0.00,,,0.00,VWS V14.00,2013-01-03 13:47:00,
2013-01-03 07:52:00,23.5,18.5,30.35,NNE,13,4.0,16.0,81,0.00,,,0.00,VWS V14.00,2013-01-03 13:52:00,
2013-01-03 07:57:00,23.1,18.1,30.35,NNE,22,9.0,16.0,81,0.00,,,0.00,VWS V14.00,2013-01-03 13:57:00,
2013-01-03 08:00:00,23.1,18.1,30.35,North,11,9.0,18.0,81,0.00,,,0.00,VWS V14.00,2013-01-03 14:00:00,
2013-01-03 08:02:00,22.9,18.0,30.36,North,5,12.0,13.0,81,0.00,,,0.00,VWS V14.00,2013-01-03 14:02:00,
2013-01-03 08:07:00,22.6,17.7,30.36,North,9,8.0,17.0,81,0.00,,,0.00,VWS V14.00,2013-01-03 14:07:00,
2013-01-03 08:12:00,22.4,17.8,30.36,NNE,18,2.0,17.0,82,0.00,,,0.00,VWS V14.00,2013-01-03 14:12:00,
2013-01-03 08:17:00,22.3,17.6,30.36,NNE,19,10.0,17.0,82,0.00,,,0.00,VWS V14.00,2013-01-03 14:17:00,
2013-01-03 08:22:00,22.2,17.5,30.36,NNE,18,3.0,17.0,82,0.00,,,0.00,VWS V14.00,2013-01-03 14:22:00,
2013-01-03 08:27:00,22.0,17.1,30.37,North,355,10.0,17.0,81,0.00,,,0.00,VWS V14.00,2013-01-03 14:27:00,
2013-01-03 08:30:00,22.0,17.1,30.37,NNE,15,5.0,17.0,81,0.00,,,0.00,VWS V14.00,2013-01-03 14:30:00,
2013-01-03 08:32:00,22.0,17.1,30.37,NNE,32,12.0,16.0,81,0.00,,,0.00,VWS V14.00,2013-01-03 14:32:00,
2013-01-03 08:37:00,21.9,17.0,30.37,NNE,32,12.0,16.0,81,0.00,,,0.00,VWS V14.00,2013-01-03 14:37:00,
2013-01-03 08:42:00,21.8,16.9,30.38,NNE,32,12.0,16.0,81,0.00,,,0.00,VWS V14.00,2013-01-03 14:42:00,
2013-01-03 08:47:00,21.5,16.6,30.38,NNE,32,12.0,16.0,81,0.00,,,0.00,VWS V14.00,2013-01-03 14:47:00,
2013-01-03 08:52:00,21.4,16.8,30.38,NNE,32,12.0,16.0,82,0.00,,,0.00,VWS V14.00,2013-01-03 14:52:00,
2013-01-03 08:57:00,21.3,16.7,30.39,NNE,16,4.0,16.0,82,0.00,,,0.00,VWS V14.00,2013-01-03 14:57:00,
2013-01-03 09:00:00,21.3,16.4,30.39,NNW,342,9.0,16.0,81,0.00,,,0.00,VWS V14.00,2013-01-03 15:00:00,
2013-01-03 09:02:00,21.2,16.3,30.39,North,349,8.0,19.0,81,0.00,,,0.00,VWS V14.00,2013-01-03 15:02:00,
2013-01-03 09:07:00,21.1,16.2,30.39,NNW,344,6.0,19.0,81,0.00,,,0.00,VWS V14.00,2013-01-03 15:07:00,
2013-01-03 09:12:00,21.1,16.2,30.39,North,5,6.0,19.0,81,0.00,,,0.00,VWS V14.00,2013-01-03 15:12:00,
2013-01-03 09:17:00,21.1,16.2,30.40,North,11,7.0,19.0,81,0.00,,,0.00,VWS V14.00,2013-01-03 15:17:00,
2013-01-03 09:22:00,21.1,16.2,30.40,North,360,6.0,19.0,81,0.00,,,0.00,VWS V14.00,2013-01-03 15:22:00,
2013-01-03 09:27:00,21.1,16.2,30.40,North,5,9.0,19.0,81,0.00,,,0.00,VWS V14.00,2013-01-03 15:27:00,
2013-01-03 09:30:00,21.1,16.2,30.40,North,355,2.0,19.0,81,0.00,,,0.00,VWS V14.00,2013-01-03 15:30:00,
2013-01-03 09:32:00,21.1,16.2,30.40,North,5,4.0,12.0,81,0.00,,,0.00,VWS V14.00,2013-01-03 15:32:00,
2013-01-03 09:37:00,21.1,16.2,30.40,NNE,17,6.0,13.0,81,0.00,,,0.00,VWS V14.00,2013-01-03 15:37:00,
2013-01-03 09:42:00,21.1,16.2,30.40,NNE,14,2.0,16.0,81,0.00,,,0.00,VWS V14.00,2013-01-03 15:42:00,
2013-01-03 09:47:00,21.1,16.2,30.40,North,5,3.0,16.0,81,0.00,,,0.00,VWS V14.00,2013-01-03 15:47:00,
2013-01-03 09:52:00,21.1,16.2,30.40,NNE,15,5.0,16.0,81,0.00,,,0.00,VWS V14.00,2013-01-03 15:52:00,
2013-01-03 09:57:00,21.1,16.2,30.40,North,5,4.0,16.0,81,0.00,,,0.00,VWS V14.00,2013-01-03 15:57:00,
2013-01-03 10:00:00,21.1,16.2,30.40,North,5,8.0,16.0,81,0.00,,,0.00,VWS V14.00,2013-01-03 16:00:00,
2013-01-03 10:02:00,21.1,16.2,30.41,North,355,4.0,10.0,81,0.00,,,0.00,VWS V14.00,2013-01-03 16:02:00,
2013-01-03 10:07:00,21.1,16.5,30.41,North,349,7.0,12.0,82,0.00,,,0.00,VWS V14.00,2013-01-03 16:07:00,
2013-01-03 10:13:00,21.3,16.7,30.41,NNE,28,7.0,12.0,82,0.00,,,0.00,VWS V14.00,2013-01-03 16:13:00,
2013-01-03 10:18:00,21.5,16.9,30.41,NNE,16,6.0,12.0,82,0.00,,,0.00,VWS V14.00,2013-01-03 16:18:00,
2013-01-03 10:23:00,21.6,17.0,30.41,NNE,26,6.0,12.0,82,0.00,,,0.00,VWS V14.00,2013-01-03 16:23:00,
2013-01-03 10:28:00,21.7,16.8,30.41,North,9,4.0,13.0,81,0.00,,,0.00,VWS V14.00,2013-01-03 16:28:00,
2013-01-03 10:30:00,21.7,16.8,30.41,NNE,22,5.0,13.0,81,0.00,,,0.00,VWS V14.00,2013-01-03 16:30:00,
2013-01-03 10:33:00,21.8,16.6,30.41,North,9,4.0,12.0,80,0.00,,,0.00,VWS V14.00,2013-01-03 16:33:00,
2013-01-03 10:38:00,21.9,16.7,30.41,NNE,17,7.0,12.0,80,0.00,,,0.00,VWS V14.00,2013-01-03 16:38:00,
2013-01-03 10:43:00,22.0,16.5,30.41,NNE,17,4.0,12.0,79,0.00,,,0.00,VWS V14.00,2013-01-03 16:43:00,
2013-01-03 10:48:00,22.3,16.8,30.41,NNE,22,3.0,12.0,79,0.00,,,0.00,VWS V14.00,2013-01-03 16:48:00,
2013-01-03 10:53:00,22.7,16.9,30.41,NNE,23,5.0,13.0,78,0.00,,,0.00,VWS V14.00,2013-01-03 16:53:00,
2013-01-03 10:58:00,23.1,17.0,30.41,North,5,5.0,13.0,77,0.00,,,0.00,VWS V14.00,2013-01-03 16:58:00,
2013-01-03 11:00:00,23.2,17.1,30.41,NNE,17,6.0,13.0,77,0.00,,,0.00,VWS V14.00,2013-01-03 17:00:00,
2013-01-03 11:03:00,23.6,16.9,30.41,NNE,22,7.0,11.0,75,0.00,,,0.00,VWS V14.00,2013-01-03 17:03:00,
2013-01-03 11:08:00,23.9,16.5,30.41,North,360,6.0,13.0,73,0.00,,,0.00,VWS V14.00,2013-01-03 17:08:00,
2013-01-03 11:13:00,24.3,16.9,30.41,North,360,6.0,13.0,73,0.00,,,0.00,VWS V14.00,2013-01-03 17:13:00,
2013-01-03 11:18:00,24.8,17.1,30.41,NNW,338,13.0,13.0,72,0.00,,,0.00,VWS V14.00,2013-01-03 17:18:00,
2013-01-03 11:23:00,25.1,17.0,30.41,NNW,344,6.0,15.0,71,0.00,,,0.00,VWS V14.00,2013-01-03 17:23:00,
2013-01-03 11:28:00,24.9,16.5,30.42,North,5,0.0,0.0,70,0.00,,,0.00,VWS V14.00,2013-01-03 17:28:00,
2013-01-03 11:30:00,24.9,16.5,30.42,North,5,0.0,15.0,70,0.00,,,0.00,VWS V14.00,2013-01-03 17:30:00,
2013-01-03 11:33:00,25.0,16.6,30.41,North,355,10.0,13.0,70,0.00,,,0.00,VWS V14.00,2013-01-03 17:33:00,
2013-01-03 11:38:00,24.9,16.2,30.41,North,350,8.0,13.0,69,0.00,,,0.00,VWS V14.00,2013-01-03 17:38:00,
2013-01-03 11:43:00,24.9,16.2,30.41,North,360,3.0,14.0,69,0.00,,,0.00,VWS V14.00,2013-01-03 17:43:00,
2013-01-03 11:48:00,24.9,16.2,30.41,North,360,9.0,14.0,69,0.00,,,0.00,VWS V14.00,2013-01-03 17:48:00,
2013-01-03 11:53:00,25.2,16.1,30.40,North,350,6.0,14.0,68,0.00,,,0.00,VWS V14.00,2013-01-03 17:53:00,
2013-01-03 11:59:00,25.5,16.1,30.40,NNW,348,4.0,7.0,67,0.00,,,0.00,VWS V14.00,2013-01-03 17:59:00,
2013-01-03 12:00:00,25.5,16.1,30.40,NNW,348,5.0,14.0,67,0.00,,,0.00,VWS V14.00,2013-01-03 18:00:00,
2013-01-03 12:04:00,26.0,16.6,30.40,NNW,347,4.0,7.0,67,0.00,,,0.00,VWS V14.00,2013-01-03 18:04:00,
2013-01-03 12:09:00,26.7,16.5,30.40,North,5,4.0,9.0,65,0.00,,,0.00,VWS V14.00,2013-01-03 18:09:00,
2013-01-03 12:14:00,27.2,16.6,30.39,North,360,4.0,10.0,64,0.00,,,0.00,VWS V14.00,2013-01-03 18:14:00,
2013-01-03 12:19:00,27.9,17.0,30.39,NNE,13,7.0,10.0,63,0.00,,,0.00,VWS V14.00,2013-01-03 18:19:00,
2013-01-03 12:24:00,28.3,17.0,30.39,North,360,6.0,10.0,62,0.00,,,0.00,VWS V14.00,2013-01-03 18:24:00,
2013-01-03 12:29:00,28.4,16.7,30.39,North,5,3.0,5.0,61,0.00,,,0.00,VWS V14.00,2013-01-03 18:29:00,
2013-01-03 12:30:00,28.4,16.7,30.39,North,5,5.0,13.0,61,0.00,,,0.00,VWS V14.00,2013-01-03 18:30:00,
2013-01-03 12:34:00,28.5,17.1,30.39,North,355,4.0,11.0,62,0.00,,,0.00,VWS V14.00,2013-01-03 18:34:00,
2013-01-03 12:39:00,28.6,17.2,30.39,North,360,8.0,11.0,62,0.00,,,0.00,VWS V14.00,2013-01-03 18:39:00,
2013-01-03 12:44:00,28.6,17.2,30.39,North,360,5.0,11.0,62,0.00,,,0.00,VWS V14.00,2013-01-03 18:44:00,
2013-01-03 12:49:00,28.7,17.3,30.39,NNW,348,9.0,11.0,62,0.00,,,0.00,VWS V14.00,2013-01-03 18:49:00,
2013-01-03 12:54:00,28.9,17.9,30.38,North,355,6.0,11.0,63,0.00,,,0.00,VWS V14.00,2013-01-03 18:54:00,
2013-01-03 12:59:00,29.1,17.7,30.38,North,355,0.0,4.0,62,0.00,,,0.00,VWS V14.00,2013-01-03 18:59:00,
2013-01-03 13:00:00,29.1,17.7,30.38,North,355,2.0,11.0,62,0.00,,,0.00,VWS V14.00,2013-01-03 19:00:00,
2013-01-03 13:04:00,29.0,17.6,30.38,North,360,5.0,9.0,62,0.00,,,0.00,VWS V14.00,2013-01-03 19:04:00,
2013-01-03 13:09:00,28.6,17.2,30.38,North,5,4.0,10.0,62,0.00,,,0.00,VWS V14.00,2013-01-03 19:09:00,
2013-01-03 13:14:00,28.3,17.3,30.38,NNE,13,6.0,10.0,63,0.00,,,0.00,VWS V14.00,2013-01-03 19:14:00,
2013-01-03 13:30:00,27.0,17.2,30.38,North,5,2.0,10.0,66,0.00,,,0.00,VWS V14.00,2013-01-03 19:30:00,
2013-01-03 13:58:00,25.3,16.9,30.37,NNW,344,0.0,9.0,70,0.00,,,0.00,VWS V14.00,2013-01-03 19:58:00,
2013-01-03 14:00:00,25.3,16.9,30.37,NNW,344,4.0,9.0,70,0.00,,,0.00,VWS V14.00,2013-01-03 20:00:00,
2013-01-03 14:03:00,25.2,16.8,30.37,NNW,343,0.0,8.0,70,0.00,,,0.00,VWS V14.00,2013-01-03 20:03:00,
2013-01-03 14:08:00,25.2,16.8,30.37,NNW,342,7.0,8.0,70,0.00,,,0.00,VWS V14.00,2013-01-03 20:08:00,
2013-01-03 14:13:00,25.1,17.0,30.37,NNW,343,6.0,8.0,71,0.00,,,0.00,VWS V14.00,2013-01-03 20:13:00,
2013-01-03 14:18:00,25.0,16.9,30.37,NNW,348,7.0,8.0,71,0.00,,,0.00,VWS V14.00,2013-01-03 20:18:00,
2013-01-03 14:23:00,24.8,16.8,30.37,North,355,2.0,8.0,71,0.00,,,0.00,VWS V14.00,2013-01-03 20:23:00,
2013-01-03 14:28:00,24.8,17.1,30.37,North,355,4.0,8.0,72,0.00,,,0.00,VWS V14.00,2013-01-03 20:28:00,
2013-01-03 14:30:00,24.8,17.1,30.37,North,355,5.0,8.0,72,0.00,,,0.00,VWS V14.00,2013-01-03 20:30:00,
2013-01-03 14:33:00,24.8,17.1,30.37,North,355,2.0,6.0,72,0.00,,,0.00,VWS V14.00,2013-01-03 20:33:00,
2013-01-03 14:38:00,24.7,17.0,30.37,North,355,0.0,6.0,72,0.00,,,0.00,VWS V14.00,2013-01-03 20:38:00,
2013-01-03 14:43:00,24.5,16.8,30.37,North,355,5.0,7.0,72,0.00,,,0.00,VWS V14.00,2013-01-03 20:43:00,
2013-01-03 14:48:00,24.4,17.0,30.37,North,355,0.0,7.0,73,0.00,,,0.00,VWS V14.00,2013-01-03 20:48:00,
2013-01-03 14:53:00,24.4,17.0,30.37,North,355,0.0,7.0,73,0.00,,,0.00,VWS V14.00,2013-01-03 20:53:00,
2013-01-03 14:58:00,24.3,16.9,30.37,North,355,0.0,7.0,73,0.00,,,0.00,VWS V14.00,2013-01-03 20:58:00,
2013-01-03 15:00:00,24.3,16.9,30.37,North,355,0.0,7.0,73,0.00,,,0.00,VWS V14.00,2013-01-03 21:00:00,
2013-01-03 15:03:00,24.3,16.9,30.37,North,355,0.0,0.0,73,0.00,,,0.00,VWS V14.00,2013-01-03 21:03:00,
2013-01-03 15:08:00,24.1,17.0,30.37,North,355,0.0,0.0,74,0.00,,,0.00,VWS V14.00,2013-01-03 21:08:00,
2013-01-03 15:13:00,24.0,16.9,30.38,North,355,0.0,0.0,74,0.00,,,0.00,VWS V14.00,2013-01-03 21:13:00,
2013-01-03 15:18:00,23.8,17.0,30.38,North,355,0.0,0.0,75,0.00,,,0.00,VWS V14.00,2013-01-03 21:18:00,
2013-01-03 15:23:00,23.6,16.9,30.37,North,355,1.0,6.0,75,0.00,,,0.00,VWS V14.00,2013-01-03 21:23:00,
2013-01-03 15:28:00,23.5,17.1,30.37,North,355,0.0,6.0,76,0.00,,,0.00,VWS V14.00,2013-01-03 21:28:00,
2013-01-03 15:30:00,23.6,17.2,30.37,North,355,0.0,6.0,76,0.00,,,0.00,VWS V14.00,2013-01-03 21:30:00,
2013-01-03 15:33:00,23.5,17.1,30.38,North,355,0.0,4.0,76,0.00,,,0.00,VWS V14.00,2013-01-03 21:33:00,
2013-01-03 15:38:00,23.5,17.4,30.37,NNW,345,0.0,7.0,77,0.00,,,0.00,VWS V14.00,2013-01-03 21:38:00,
2013-01-03 15:45:00,23.4,17.3,30.37,NNW,344,0.0,7.0,77,0.00,,,0.00,VWS V14.00,2013-01-03 21:45:00,
2013-01-03 15:50:00,23.4,17.6,30.37,NNW,344,0.0,7.0,78,0.00,,,0.00,VWS V14.00,2013-01-03 21:50:00,
2013-01-03 15:55:00,23.5,17.7,30.37,NNW,344,0.0,7.0,78,0.00,,,0.00,VWS V14.00,2013-01-03 21:55:00,
2013-01-03 16:00:00,23.5,17.4,30.37,NNW,344,0.0,5.0,77,0.00,,,0.00,VWS V14.00,2013-01-03 22:00:00,
2013-01-03 16:05:00,23.5,17.7,30.37,NNW,344,2.0,5.0,78,0.00,,,0.00,VWS V14.00,2013-01-03 22:05:00,
2013-01-03 16:10:00,23.6,17.5,30.37,NNW,344,0.0,5.0,77,0.00,,,0.00,VWS V14.00,2013-01-03 22:10:00,
2013-01-03 16:15:00,23.6,17.5,30.37,NNW,344,0.0,5.0,77,0.00,,,0.00,VWS V14.00,2013-01-03 22:15:00,
2013-01-03 16:20:00,23.6,17.8,30.37,NNW,344,0.0,5.0,78,0.00,,,0.00,VWS V14.00,2013-01-03 22:20:00,
2013-01-03 16:25:00,23.6,17.8,30.37,NNW,344,0.0,5.0,78,0.00,,,0.00,VWS V14.00,2013-01-03 22:25:00,
2013-01-03 16:30:00,23.6,17.8,30.37,NNW,342,0.0,7.0,78,0.00,,,0.00,VWS V14.00,2013-01-03 22:30:00,
2013-01-03 16:35:00,23.6,17.5,30.37,NNW,340,0.0,7.0,77,0.00,,,0.00,VWS V14.00,2013-01-03 22:35:00,
2013-01-03 16:40:00,23.5,17.7,30.37,NNW,340,0.0,7.0,78,0.00,,,0.00,VWS V14.00,2013-01-03 22:40:00,
2013-01-03 16:45:00,23.4,17.6,30.37,NNW,340,0.0,7.0,78,0.00,,,0.00,VWS V14.00,2013-01-03 22:45:00,
2013-01-03 16:50:00,23.3,17.5,30.37,NNW,340,0.0,7.0,78,0.00,,,0.00,VWS V14.00,2013-01-03 22:50:00,
2013-01-03 16:55:00,23.2,17.4,30.38,NNW,340,0.0,7.0,78,0.00,,,0.00,VWS V14.00,2013-01-03 22:55:00,
2013-01-03 17:00:00,23.0,17.2,30.38,NNW,340,0.0,0.0,78,0.00,,,0.00,VWS V14.00,2013-01-03 23:00:00,
2013-01-03 17:05:00,22.9,17.1,30.38,NNW,340,0.0,0.0,78,0.00,,,0.00,VWS V14.00,2013-01-03 23:05:00,
2013-01-03 17:10:00,22.7,16.9,30.38,NNW,340,0.0,0.0,78,0.00,,,0.00,VWS V14.00,2013-01-03 23:10:00,
2013-01-03 17:15:00,22.5,17.0,30.38,NNW,340,0.0,0.0,79,0.00,,,0.00,VWS V14.00,2013-01-03 23:15:00,
2013-01-03 17:20:00,22.3,16.8,30.38,NNW,340,0.0,0.0,79,0.00,,,0.00,VWS V14.00,2013-01-03 23:20:00,
2013-01-03 17:25:00,22.0,16.5,30.38,NNW,340,0.0,0.0,79,0.00,,,0.00,VWS V14.00,2013-01-03 23:25:00,
2013-01-03 17:30:00,21.8,16.3,30.38,NNW,340,0.0,0.0,79,0.00,,,0.00,VWS V14.00,2013-01-03 23:30:00,
2013-01-03 17:35:00,21.7,16.2,30.38,NNW,340,0.0,0.0,79,0.00,,,0.00,VWS V14.00,2013-01-03 23:35:00,
2013-01-03 17:40:00,21.5,16.3,30.38,NNW,340,0.0,0.0,80,0.00,,,0.00,VWS V14.00,2013-01-03 23:40:00,
2013-01-03 17:45:00,21.3,16.1,30.38,NNW,340,0.0,0.0,80,0.00,,,0.00,VWS V14.00,2013-01-03 23:45:00,
2013-01-03 17:50:00,21.1,15.9,30.38,NNW,340,0.0,0.0,80,0.00,,,0.00,VWS V14.00,2013-01-03 23:50:00,
2013-01-03 17:55:00,20.9,15.7,30.38,NNW,340,0.0,0.0,80,0.00,,,0.00,VWS V14.00,2013-01-03 23:55:00,
2013-01-03 18:00:00,20.6,15.7,30.38,NNW,340,0.0,0.0,81,0.00,,,0.00,VWS V14.00,2013-01-04 00:00:00,
2013-01-03 18:05:00,20.4,15.5,30.37,NNW,340,0.0,0.0,81,0.00,,,0.00,VWS V14.00,2013-01-04 00:05:00,
2013-01-03 18:11:00,20.4,15.8,30.37,NNW,340,4.0,6.0,82,0.00,,,0.00,VWS V14.00,2013-01-04 00:11:00,
2013-01-03 18:16:00,20.4,15.8,30.38,NNW,339,4.0,6.0,82,0.00,,,0.00,VWS V14.00,2013-01-04 00:16:00,
2013-01-03 18:21:00,20.4,15.8,30.37,NNW,339,2.0,6.0,82,0.00,,,0.00,VWS V14.00,2013-01-04 00:21:00,
2013-01-03 18:26:00,20.4,15.8,30.37,NNW,339,0.0,6.0,82,0.00,,,0.00,VWS V14.00,2013-01-04 00:26:00,
2013-01-03 18:30:00,20.4,15.8,30.37,NNW,339,0.0,6.0,82,0.00,,,0.00,VWS V14.00,2013-01-04 00:30:00,
2013-01-03 18:31:00,20.4,15.8,30.37,NNW,339,0.0,0.0,82,0.00,,,0.00,VWS V14.00,2013-01-04 00:31:00,
2013-01-03 18:36:00,20.4,15.8,30.37,NNW,339,0.0,0.0,82,0.00,,,0.00,VWS V14.00,2013-01-04 00:36:00,
2013-01-03 18:41:00,20.4,15.8,30.37,NNW,339,0.0,0.0,82,0.00,,,0.00,VWS V14.00,2013-01-04 00:41:00,
2013-01-03 18:46:00,20.4,15.8,30.37,NNW,339,0.0,0.0,82,0.00,,,0.00,VWS V14.00,2013-01-04 00:46:00,
2013-01-03 18:51:00,20.4,15.8,30.36,NNW,339,0.0,0.0,82,0.00,,,0.00,VWS V14.00,2013-01-04 00:51:00,
2013-01-03 18:56:00,20.4,15.8,30.36,NNW,339,5.0,5.0,82,0.00,,,0.00,VWS V14.00,2013-01-04 00:56:00,
2013-01-03 19:00:00,20.4,15.8,30.36,NNW,339,0.0,5.0,82,0.00,,,0.00,VWS V14.00,2013-01-04 01:00:00,
2013-01-03 19:01:00,20.4,15.8,30.36,NNW,339,2.0,4.0,82,0.00,,,0.00,VWS V14.00,2013-01-04 01:01:00,
2013-01-03 19:06:00,20.4,15.8,30.36,NNW,338,1.0,7.0,82,0.00,,,0.00,VWS V14.00,2013-01-04 01:06:00,
2013-01-03 19:11:00,19.8,16.0,30.36,NNW,338,2.0,7.0,85,0.00,,,0.00,VWS V14.00,2013-01-04 01:11:00,
2013-01-03 19:16:00,19.9,16.1,30.36,NNW,338,0.0,7.0,85,0.00,,,0.00,VWS V14.00,2013-01-04 01:16:00,
2013-01-03 19:21:00,19.9,16.4,30.36,NNW,338,0.0,7.0,86,0.00,,,0.00,VWS V14.00,2013-01-04 01:21:00,
2013-01-03 19:26:00,19.9,16.4,30.36,NNW,338,0.0,7.0,86,0.00,,,0.00,VWS V14.00,2013-01-04 01:26:00,
2013-01-03 19:30:00,19.9,16.4,30.36,NNW,338,0.0,7.0,86,0.00,,,0.00,VWS V14.00,2013-01-04 01:30:00,
2013-01-03 19:31:00,19.9,16.4,30.36,NNW,338,0.0,5.0,86,0.00,,,0.00,VWS V14.00,2013-01-04 01:31:00,
2013-01-03 19:36:00,19.8,16.3,30.36,NNW,338,0.0,5.0,86,0.00,,,0.00,VWS V14.00,2013-01-04 01:36:00,
2013-01-03 19:41:00,19.7,16.2,30.36,NNW,338,0.0,5.0,86,0.00,,,0.00,VWS V14.00,2013-01-04 01:41:00,
2013-01-03 19:46:00,19.6,16.1,30.36,NNW,338,0.0,5.0,86,0.00,,,0.00,VWS V14.00,2013-01-04 01:46:00,
2013-01-03 19:51:00,19.5,16.0,30.36,NNW,338,0.0,5.0,86,0.00,,,0.00,VWS V14.00,2013-01-04 01:51:00,
2013-01-03 19:56:00,19.4,15.9,30.36,NNW,338,0.0,5.0,86,0.00,,,0.00,VWS V14.00,2013-01-04 01:56:00,
2013-01-03 20:00:00,19.4,15.9,30.36,NNW,338,0.0,5.0,86,0.00,,,0.00,VWS V14.00,2013-01-04 02:00:00,
2013-01-03 20:01:00,19.4,15.9,30.36,NNW,338,4.0,4.0,86,0.00,,,0.00,VWS V14.00,2013-01-04 02:01:00,
2013-01-03 20:06:00,19.3,15.8,30.36,NNW,338,0.0,5.0,86,0.00,,,0.00,VWS V14.00,2013-01-04 02:06:00,
2013-01-03 20:11:00,19.3,15.8,30.36,NNW,338,0.0,5.0,86,0.00,,,0.00,VWS V14.00,2013-01-04 02:11:00,
2013-01-03 20:16:00,19.3,15.8,30.36,NNW,338,0.0,5.0,86,0.00,,,0.00,VWS V14.00,2013-01-04 02:16:00,
2013-01-03 20:21:00,19.2,15.7,30.36,NNW,338,0.0,5.0,86,0.00,,,0.00,VWS V14.00,2013-01-04 02:21:00,
2013-01-03 20:26:00,19.2,15.7,30.36,NNW,338,0.0,5.0,86,0.00,,,0.00,VWS V14.00,2013-01-04 02:26:00,
2013-01-03 20:30:00,19.2,15.7,30.36,NNW,338,0.0,5.0,86,0.00,,,0.00,VWS V14.00,2013-01-04 02:30:00,
2013-01-03 20:31:00,19.2,15.7,30.35,NNW,338,0.0,0.0,86,0.00,,,0.00,VWS V14.00,2013-01-04 02:31:00,
2013-01-03 20:36:00,19.2,15.7,30.35,NNW,338,0.0,0.0,86,0.00,,,0.00,VWS V14.00,2013-01-04 02:36:00,
2013-01-03 20:41:00,19.2,15.7,30.35,NNW,338,2.0,4.0,86,0.00,,,0.00,VWS V14.00,2013-01-04 02:41:00,
2013-01-03 20:46:00,19.1,15.6,30.35,NNW,338,2.0,5.0,86,0.00,,,0.00,VWS V14.00,2013-01-04 02:46:00,
2013-01-03 20:51:00,19.1,15.3,30.35,NNW,338,0.0,5.0,85,0.00,,,0.00,VWS V14.00,2013-01-04 02:51:00,
2013-01-03 20:56:00,19.1,15.6,30.35,NNW,338,0.0,5.0,86,0.00,,,0.00,VWS V14.00,2013-01-04 02:56:00,
2013-01-03 21:00:00,19.1,15.3,30.35,NNW,338,0.0,5.0,85,0.00,,,0.00,VWS V14.00,2013-01-04 03:00:00,
2013-01-03 21:01:00,19.1,15.3,30.35,NNW,338,0.0,4.0,85,0.00,,,0.00,VWS V14.00,2013-01-04 03:01:00,
2013-01-03 21:06:00,19.1,15.3,30.35,NNW,338,2.0,4.0,85,0.00,,,0.00,VWS V14.00,2013-01-04 03:06:00,
2013-01-03 21:11:00,19.1,15.3,30.35,NNW,338,2.0,4.0,85,0.00,,,0.00,VWS V14.00,2013-01-04 03:11:00,
2013-01-03 21:16:00,19.0,15.2,30.34,NNW,338,2.0,4.0,85,0.00,,,0.00,VWS V14.00,2013-01-04 03:16:00,
2013-01-03 21:22:00,19.1,15.3,30.34,NNW,338,2.0,4.0,85,0.00,,,0.00,VWS V14.00,2013-01-04 03:22:00,
2013-01-03 21:27:00,19.0,15.2,30.34,NNW,338,2.0,4.0,85,0.00,,,0.00,VWS V14.00,2013-01-04 03:27:00,
2013-01-03 21:30:00,19.0,15.2,30.34,NNW,338,2.0,4.0,85,0.00,,,0.00,VWS V14.00,2013-01-04 03:30:00,
2013-01-03 21:32:00,19.0,15.2,30.34,NNW,338,2.0,2.0,85,0.00,,,0.00,VWS V14.00,2013-01-04 03:32:00,
2013-01-03 21:37:00,18.9,15.1,30.34,NNW,338,2.0,2.0,85,0.00,,,0.00,VWS V14.00,2013-01-04 03:37:00,
2013-01-03 21:42:00,19.0,15.5,30.34,NNW,338,2.0,2.0,86,0.00,,,0.00,VWS V14.00,2013-01-04 03:42:00,
2013-01-03 21:47:00,19.1,15.3,30.34,NNW,338,2.0,2.0,85,0.00,,,0.00,VWS V14.00,2013-01-04 03:47:00,
2013-01-03 21:52:00,19.1,15.3,30.34,NNW,337,0.0,4.0,85,0.00,,,0.00,VWS V14.00,2013-01-04 03:52:00,
2013-01-03 21:57:00,19.1,15.3,30.34,NNW,337,0.0,4.0,85,0.00,,,0.00,VWS V14.00,2013-01-04 03:57:00,
2013-01-03 22:00:00,19.1,15.3,30.34,NNW,337,2.0,5.0,85,0.00,,,0.00,VWS V14.00,2013-01-04 04:00:00,
2013-01-03 22:02:00,19.1,15.3,30.34,NNW,337,0.0,2.0,85,0.00,,,0.00,VWS V14.00,2013-01-04 04:02:00,
2013-01-03 22:07:00,19.1,15.3,30.34,NNW,337,0.0,2.0,85,0.00,,,0.00,VWS V14.00,2013-01-04 04:07:00,
2013-01-03 22:12:00,19.1,15.3,30.34,NNW,337,0.0,2.0,85,0.00,,,0.00,VWS V14.00,2013-01-04 04:12:00,
2013-01-03 22:17:00,19.0,15.2,30.34,NNW,337,4.0,5.0,85,0.00,,,0.00,VWS V14.00,2013-01-04 04:17:00,
2013-01-03 22:22:00,18.9,15.1,30.34,NNW,337,4.0,5.0,85,0.00,,,0.00,VWS V14.00,2013-01-04 04:22:00,
2013-01-03 22:27:00,19.0,15.2,30.34,NNW,337,4.0,6.0,85,0.00,,,0.00,VWS V14.00,2013-01-04 04:27:00,
2013-01-03 22:30:00,18.9,15.1,30.34,NNW,337,5.0,6.0,85,0.00,,,0.00,VWS V14.00,2013-01-04 04:30:00,
2013-01-03 22:32:00,19.0,15.2,30.34,NNW,336,4.0,6.0,85,0.00,,,0.00,VWS V14.00,2013-01-04 04:32:00,
2013-01-03 22:37:00,19.1,15.3,30.34,NNW,336,4.0,6.0,85,0.00,,,0.00,VWS V14.00,2013-01-04 04:37:00,
2013-01-03 22:42:00,19.1,15.3,30.34,NNW,333,2.0,7.0,85,0.00,,,0.00,VWS V14.00,2013-01-04 04:42:00,
2013-01-03 22:47:00,19.2,15.4,30.34,NW,326,4.0,7.0,85,0.00,,,0.00,VWS V14.00,2013-01-04 04:47:00,
2013-01-03 22:52:00,19.3,15.5,30.34,NW,314,4.0,8.0,85,0.00,,,0.00,VWS V14.00,2013-01-04 04:52:00,
2013-01-03 22:57:00,19.3,15.5,30.33,WSW,252,5.0,8.0,85,0.00,,,0.00,VWS V14.00,2013-01-04 04:57:00,
2013-01-03 23:00:00,19.3,15.5,30.33,WSW,244,3.0,8.0,85,0.00,,,0.00,VWS V14.00,2013-01-04 05:00:00,
2013-01-03 23:04:00,19.4,15.6,30.33,SW,227,3.0,10.0,85,0.00,,,0.00,VWS V14.00,2013-01-04 05:04:00,
2013-01-03 23:07:00,19.4,15.6,30.33,SW,223,9.0,10.0,85,0.00,,,0.00,VWS V14.00,2013-01-04 05:07:00,
2013-01-03 23:10:00,19.4,15.6,30.33,SW,225,3.0,10.0,85,0.00,,,0.00,VWS V14.00,2013-01-04 05:10:00,
2013-01-03 23:11:00,19.4,15.6,30.33,SW,225,4.0,10.0,85,0.00,,,0.00,VWS V14.00,2013-01-04 05:11:00,
2013-01-03 23:16:00,19.4,15.4,30.33,SW,226,3.0,10.0,84,0.00,,,0.00,VWS V14.00,2013-01-04 05:16:00,
2013-01-03 23:21:00,19.4,15.6,30.33,SW,226,7.0,10.0,85,0.00,,,0.00,VWS V14.00,2013-01-04 05:21:00,
2013-01-03 23:26:00,19.3,15.5,30.33,SW,225,4.0,10.0,85,0.00,,,0.00,VWS V14.00,2013-01-04 05:26:00,
2013-01-03 23:30:00,19.3,15.5,30.33,SW,225,2.0,10.0,85,0.00,,,0.00,VWS V14.00,2013-01-04 05:30:00,
2013-01-03 23:31:00,19.3,15.5,30.33,SW,225,2.0,2.0,85,0.00,,,0.00,VWS V14.00,2013-01-04 05:31:00,
2013-01-03 23:36:00,19.2,15.4,30.33,SW,225,0.0,4.0,85,0.00,,,0.00,VWS V14.00,2013-01-04 05:36:00,
2013-01-03 23:41:00,19.1,15.1,30.33,SW,225,0.0,4.0,84,0.00,,,0.00,VWS V14.00,2013-01-04 05:41:00,
2013-01-03 23:46:00,18.9,15.1,30.33,SW,225,0.0,4.0,85,0.00,,,0.00,VWS V14.00,2013-01-04 05:46:00,
2013-01-03 23:51:00,18.9,15.1,30.33,SW,225,2.0,4.0,85,0.00,,,0.00,VWS V14.00,2013-01-04 05:51:00,
2013-01-03 23:56:00,18.9,15.4,30.33,SW,225,3.0,4.0,86,0.00,,,0.00,VWS V14.00,2013-01-04 05:56:00,